Tracking 19709 objects as of 17-Jun-2019
HD Live streaming from Space Station
objects crossing your sky now

DMSP 5D-2 F11 DEB

Track DMSP 5D-2 F11 DEB now!
10-day predictions


NORAD ID: 29088
Int'l Code: 1991-082CH
Perigee: 764.5 km
Apogee: 784.6 km
Inclination: 98.7 °
Period: 100.2 minutes
Semi major axis: 7145 km
RCS: 0.0127 m2 (small)
Launch date: November 28, 1991
Source: United States (US)
Launch site: AIR FORCE WESTERN TEST RANGE (AFWTR)

Note: This is SATELLITE DEBRIS
aabbcc
Your satellite tracking list
Your tracking list is empty




NASA's NSSDC Master Catalog

Two Line Element Set (TLE):
1 29088U 91082CH  19168.29823466  .00001059  00000-0  36953-3 0  9996
2 29088  98.6573 209.6739 0014076  86.3686 273.9109 14.37318091774183
Source of the keplerian elements: AFSPC